Volver al catálogo

DMSP 5D-2 F13 DEB

ActivoSSO
NORAD 40404·DEBRIS·🇺🇸 United States

Lanzado Mar 24, 1995 desde Vandenberg Space Force Base

Loading…

Próximos Pases (próximas 24 horas)

TLE

ActualizadoSource: Space-Track

Época: Sep 13, 2026, 18:54 UTC

1 40404U 95015R   26256.78773737  .00000268  00000-0  14965-3 0  9996
2 40404  98.7880 272.1160 0004737 241.9101 118.1596 14.18993726597240

Sigue DMSP 5D-2 F13 DEB en tiempo real con AllMySat

Download on the App Store